Hourly Weather Otrzesie

Today, 30 July, Friday

Time Temperature Precipitation Wind Pressure Humidity
00:00 +19°C° 0 mm 2 mps 736 mmHg 67%
01:00 +18°C° 0 mm 2 mps 736 mmHg 71%
02:00 +18°C° 0 mm 2 mps 735 mmHg 74%
03:00 +17°C° 0 mm 2 mps 735 mmHg 77%
04:00 +17°C° 0 mm 2 mps 735 mmHg 80%
05:00 +18°C° 0 mm 2 mps 735 mmHg 75%
06:00 +19°C° 0 mm 2 mps 736 mmHg 69%
07:00 +21°C° 0 mm 2 mps 736 mmHg 64%
08:00 +23°C° 0 mm 2 mps 736 mmHg 59%
09:00 +25°C° 0 mm 3 mps 736 mmHg 53%
10:00 +26°C° 0 mm 3 mps 736 mmHg 47%
11:00 +28°C° 0 mm 4 mps 735 mmHg 44%
12:00 +29°C° 0 mm 4 mps 735 mmHg 40%
13:00 +30°C° 0 mm 5 mps 734 mmHg 37%
14:00 +30°C° 0 mm 5 mps 734 mmHg 36%
15:00 +30°C° 0 mm 5 mps 734 mmHg 36%
16:00 +30°C° 0 mm 5 mps 734 mmHg 35%
17:00 +28°C° 0 mm 4 mps 734 mmHg 41%
18:00 +26°C° 0 mm 3 mps 734 mmHg 48%
19:00 +25°C° 0 mm 2 mps 733 mmHg 54%
20:00 +24°C° 0 mm 1 mps 734 mmHg 55%
21:00 +23°C° 0 mm 1 mps 734 mmHg 57%
22:00 +20°C° 0 mm 0 mps 734 mmHg 58%
23:00 +19°C° 0 mm 0 mps 734 mmHg 60%

Tomorrow, 31 July, Saturday

Time Temperature Precipitation Wind Pressure Humidity
00:00 +21°C° 0 mm 1 mps 734 mmHg 62%
01:00 +21°C° 0 mm 1 mps 733 mmHg 63%
02:00 +20°C° 0.1 mm 1 mps 733 mmHg 66%
03:00 +20°C° 0.1 mm 1 mps 733 mmHg 69%
04:00 +20°C° 0.1 mm 1 mps 733 mmHg 72%
05:00 +20°C° 0 mm 2 mps 733 mmHg 71%
06:00 +21°C° 0 mm 2 mps 733 mmHg 70%
07:00 +22°C° 0 mm 3 mps 733 mmHg 70%
08:00 +22°C° 0.1 mm 3 mps 733 mmHg 72%
09:00 +22°C° 0.1 mm 4 mps 733 mmHg 75%
10:00 +21°C° 0.1 mm 4 mps 733 mmHg 78%
11:00 +21°C° 0.7 mm 4 mps 733 mmHg 78%
12:00 +21°C° 0.7 mm 4 mps 734 mmHg 79%
13:00 +21°C° 0.7 mm 4 mps 734 mmHg 80%
14:00 +22°C° 0.1 mm 4 mps 734 mmHg 73%
15:00 +23°C° 0.1 mm 4 mps 734 mmHg 67%
16:00 +26°C° 0.1 mm 4 mps 733 mmHg 60%
17:00 +25°C° 0 mm 3 mps 733 mmHg 60%
18:00 +24°C° 0 mm 3 mps 733 mmHg 60%
19:00 +22°C° 0 mm 3 mps 733 mmHg 60%
20:00 +21°C° 0 mm 2 mps 733 mmHg 61%
21:00 +20°C° 0 mm 2 mps 733 mmHg 62%
22:00 +19°C° 0 mm 2 mps 734 mmHg 63%
23:00 +19°C° 0 mm 2 mps 734 mmHg 64%

Day after tomorrow, 1 August, Sunday

Time Temperature Precipitation Wind Pressure Humidity
00:00 +18°C° 0 mm 2 mps 734 mmHg 65%
01:00 +18°C° 0 mm 2 mps 734 mmHg 66%
02:00 +18°C° 0 mm 1 mps 734 mmHg 67%
03:00 +18°C° 0 mm 1 mps 734 mmHg 68%
04:00 +15°C° 0 mm 0 mps 734 mmHg 69%
05:00 +18°C° 0 mm 1 mps 733 mmHg 67%
06:00 +19°C° 0 mm 1 mps 733 mmHg 64%
07:00 +19°C° 0 mm 2 mps 733 mmHg 62%
08:00 +19°C° 0.6 mm 2 mps 733 mmHg 68%
09:00 +18°C° 0.6 mm 3 mps 733 mmHg 75%
10:00 +18°C° 0.6 mm 3 mps 734 mmHg 81%
11:00 +17°C° 1.2 mm 4 mps 734 mmHg 85%
12:00 +15°C° 1.2 mm 4 mps 734 mmHg 90%
13:00 +15°C° 1.2 mm 4 mps 734 mmHg 94%
14:00 +15°C° 0.1 mm 4 mps 734 mmHg 90%
15:00 +17°C° 0.1 mm 3 mps 733 mmHg 85%
16:00 +17°C° 0.1 mm 3 mps 733 mmHg 80%
17:00 +17°C° 0 mm 2 mps 733 mmHg 81%
18:00 +17°C° 0 mm 2 mps 733 mmHg 82%
19:00 +18°C° 0 mm 1 mps 734 mmHg 83%
20:00 +16°C° 0 mm 1 mps 734 mmHg 85%
21:00 +15°C° 0 mm 1 mps 733 mmHg 87%
22:00 +14°C° 0 mm 0 mps 733 mmHg 89%
23:00 +15°C° 0.1 mm 1 mps 734 mmHg 89%

2 August, Monday

Time Temperature Precipitation Wind Pressure Humidity
00:00 +15°C° 0.1 mm 1 mps 734 mmHg 90%
01:00 +15°C° 0.1 mm 2 mps 734 mmHg 90%
02:00 +15°C° 0.1 mm 2 mps 734 mmHg 91%
03:00 +15°C° 0.1 mm 2 mps 734 mmHg 93%
04:00 +14°C° 0.1 mm 3 mps 734 mmHg 94%
05:00 +16°C° 0.1 mm 3 mps 734 mmHg 90%
06:00 +17°C° 0.1 mm 3 mps 734 mmHg 87%
07:00 +17°C° 0.1 mm 3 mps 735 mmHg 83%
08:00 +18°C° 0.5 mm 3 mps 735 mmHg 78%
09:00 +20°C° 0.5 mm 4 mps 735 mmHg 72%
10:00 +21°C° 0.5 mm 4 mps 735 mmHg 66%
11:00 +21°C° 0.4 mm 4 mps 735 mmHg 64%
12:00 +22°C° 0.4 mm 4 mps 735 mmHg 61%
13:00 +22°C° 0.4 mm 4 mps 735 mmHg 58%
14:00 +22°C° 0.2 mm 4 mps 736 mmHg 58%
15:00 +22°C° 0.2 mm 4 mps 736 mmHg 59%
16:00 +22°C° 0.2 mm 4 mps 736 mmHg 59%
17:00 +20°C° 0.3 mm 4 mps 736 mmHg 66%
18:00 +19°C° 0.3 mm 3 mps 736 mmHg 73%
19:00 +18°C° 0.3 mm 3 mps 736 mmHg 80%
20:00 +17°C° 0.1 mm 3 mps 737 mmHg 83%
21:00 +16°C° 0.1 mm 2 mps 737 mmHg 86%
22:00 +15°C° 0.1 mm 2 mps 737 mmHg 89%
23:00 +15°C° 0 mm 2 mps 738 mmHg 88%

3 August, Tuesday

Time Temperature Precipitation Wind Pressure Humidity
00:00 +15°C° 0 mm 2 mps 738 mmHg 87%
01:00 +15°C° 0 mm 2 mps 738 mmHg 86%
02:00 +14°C° 0 mm 2 mps 738 mmHg 87%
03:00 +14°C° 0 mm 1 mps 738 mmHg 88%
04:00 +14°C° 0 mm 1 mps 738 mmHg 89%
05:00 +15°C° 0 mm 2 mps 738 mmHg 84%
06:00 +16°C° 0 mm 2 mps 739 mmHg 79%
07:00 +18°C° 0 mm 2 mps 739 mmHg 74%
08:00 +19°C° 0 mm 2 mps 739 mmHg 67%
09:00 +21°C° 0 mm 2 mps 739 mmHg 59%
10:00 +24°C° 0 mm 2 mps 739 mmHg 51%
11:00 +24°C° 0.2 mm 2 mps 738 mmHg 50%
12:00 +24°C° 0.2 mm 2 mps 738 mmHg 48%
13:00 +25°C° 0.2 mm 1 mps 738 mmHg 47%
14:00 +25°C° 0 mm 1 mps 738 mmHg 48%
15:00 +25°C° 0 mm 1 mps 737 mmHg 48%
16:00 +25°C° 0 mm 1 mps 737 mmHg 49%
17:00 +23°C° 0 mm 1 mps 737 mmHg 55%
18:00 +22°C° 0 mm 1 mps 737 mmHg 60%
19:00 +20°C° 0 mm 2 mps 737 mmHg 65%
20:00 +19°C° 0.5 mm 2 mps 737 mmHg 71%
21:00 +18°C° 0.5 mm 2 mps 737 mmHg 77%
22:00 +17°C° 0.5 mm 2 mps 737 mmHg 83%
23:00 +17°C° 0.9 mm 2 mps 737 mmHg 86%

4 August, Wednesday

Time Temperature Precipitation Wind Pressure Humidity
00:00 +16°C° 0.9 mm 2 mps 737 mmHg 89%
01:00 +16°C° 0.9 mm 2 mps 737 mmHg 93%
02:00 +16°C° 0 mm 2 mps 737 mmHg 94%
03:00 +15°C° 0 mm 2 mps 737 mmHg 94%
04:00 +14°C° 0 mm 2 mps 737 mmHg 95%
05:00 +15°C° 0 mm 2 mps 737 mmHg 91%
06:00 +16°C° 0 mm 2 mps 737 mmHg 86%
07:00 +17°C° 0 mm 2 mps 738 mmHg 81%
08:00 +18°C° 0 mm 2 mps 738 mmHg 74%
09:00 +20°C° 0 mm 2 mps 738 mmHg 66%
10:00 +21°C° 0 mm 2 mps 738 mmHg 58%
11:00 +22°C° 0 mm 3 mps 737 mmHg 54%
12:00 +24°C° 0 mm 3 mps 737 mmHg 50%
13:00 +24°C° 0 mm 3 mps 737 mmHg 46%
14:00 +24°C° 0 mm 3 mps 737 mmHg 47%
15:00 +24°C° 0 mm 3 mps 737 mmHg 47%
16:00 +24°C° 0 mm 3 mps 737 mmHg 48%
17:00 +22°C° 0 mm 3 mps 737 mmHg 54%
18:00 +21°C° 0 mm 3 mps 737 mmHg 60%
19:00 +20°C° 0 mm 3 mps 737 mmHg 66%
20:00 +19°C° 0 mm 3 mps 737 mmHg 69%
21:00 +18°C° 0 mm 3 mps 737 mmHg 72%
22:00 +17°C° 0 mm 3 mps 737 mmHg 75%
23:00 +17°C° 0 mm 3 mps 737 mmHg 76%
Show more